Waarnemingen

Advertentie
Mijn weer
Kiruna Airport, Zweden (2044): temperatuur & dauwpunt: 13.11.2017 19:00:00 - 19.11.2017 19:00:00 (CET)Kiruna Airport, Zweden (2044): windsnelheid: 13.11.2017 19:00:00 - 19.11.2017 19:00:00 (CET)Kiruna Airport, Zweden (2044): windrichting: 13.11.2017 19:00:00 - 19.11.2017 19:00:00 (CET)Kiruna Airport, Zweden (2044): luchtdruk: 13.11.2017 19:00:00 - 19.11.2017 19:00:00 (CET)Kiruna Airport, Zweden (2044): zicht: 13.11.2017 19:00:00 - 19.11.2017 19:00:00 (CET)
Datum & Tijd tt [°C] td [°C] ff [km/u] ff [kn] dd ppp [hPa] vv [km]
19.11.2017 19:00:00 - - - - - - -
19.11.2017 18:00:00 -7,8 -8,5 0 0 N 1010,4 10
19.11.2017 17:00:00 -7,8 -8,5 0 0 N 1010,5 10
19.11.2017 16:00:00 -7,0 -7,7 0 0 N 1010,1 10
19.11.2017 15:00:00 -6,5 -6,9 0 0 N 1009,7 2,4
19.11.2017 14:00:00 -6,3 -6,7 0 0 N 1009,5 10
19.11.2017 13:00:00 -6,4 -6,8 0 0 N 1008,9 10
19.11.2017 12:00:00 -6,5 -6,8 0 0 N 1008,7 10
19.11.2017 11:00:00 -6,6 -7,0 0 0 N 1008,5 10
19.11.2017 10:00:00 -6,9 -7,6 0 0 N 1008,0 10
19.11.2017 09:00:00 -7,0 -7,5 0 0 N 1007,6 10
19.11.2017 08:00:00 -6,7 -7,1 0 0 N 1006,8 10
19.11.2017 07:00:00 -6,8 -7,2 0 0 N 1006,5 10
19.11.2017 06:00:00 -7,0 -7,5 0 0 N 1006,3 10
19.11.2017 05:00:00 -6,5 -6,9 0 0 N 1005,8 3,4
19.11.2017 04:00:00 -6,9 -7,3 0 0 N 1005,5 10
19.11.2017 03:00:00 -6,3 -6,7 0 0 N 1005,1 10
19.11.2017 02:00:00 -6,3 -6,7 0 0 N 1004,8 10
19.11.2017 01:00:00 -6,0 -6,4 0 0 N 1004,5 10
19.11.2017 00:00:00 -6,2 -6,6 0 0 N 1004,3 10
18.11.2017 23:00:00 -6,2 -6,6 0 0 N 1004,0 10
18.11.2017 22:00:00 -6,1 -6,5 2 1 - 1003,6 10
18.11.2017 21:00:00 -6,2 -6,6 5 3 NNW 1003,2 10
18.11.2017 20:00:00 -6,3 -6,7 5 3 N 1002,8 7
18.11.2017 19:00:00 -6,4 -6,8 5 3 N 1002,2 2,8
18.11.2017 18:00:00 -6,6 -7,1 4 2 N 1001,9 10
18.11.2017 17:00:00 -7,2 -7,7 0 0 N 1001,8 10
18.11.2017 16:00:00 -7,7 -8,4 0 0 N 1001,8 10
18.11.2017 15:00:00 -7,5 -8,0 0 0 N 1001,5 10
18.11.2017 14:00:00 -7,6 -8,1 4 2 - 1001,1 10
18.11.2017 13:00:00 -7,9 -8,6 5 3 NNW 1001,0 5
18.11.2017 12:00:00 -8,4 -9,1 4 2 N 1000,9 10
18.11.2017 11:00:00 -8,7 -9,4 4 2 N 1000,6 7
18.11.2017 10:00:00 -8,9 -9,6 4 2 N 1000,2 8
18.11.2017 09:00:00 -9,0 -9,7 4 2 NNO 999,4 10
18.11.2017 08:00:00 -8,9 -9,6 4 2 N 998,8 10
18.11.2017 07:00:00 -9,0 -9,7 4 2 N 998,3 10
18.11.2017 06:00:00 -9,1 -9,8 5 3 N 998,0 10
18.11.2017 05:00:00 -8,6 -9,3 5 3 N 997,4 10
18.11.2017 04:00:00 -8,3 -9,0 4 2 N 997,1 5
18.11.2017 03:00:00 -8,3 -9,0 4 2 NNO 996,9 8
18.11.2017 02:00:00 -8,4 -9,1 5 3 NNO 996,6 10
18.11.2017 01:00:00 -8,5 -9,2 5 3 NNO 996,6 10
18.11.2017 00:00:00 -8,4 -9,1 4 2 N 996,4 10
17.11.2017 23:00:00 -8,8 -9,5 4 2 N 996,2 10
17.11.2017 22:00:00 -8,6 -9,3 4 2 N 995,8 4,3
17.11.2017 21:00:00 -8,4 -9,1 4 2 N 995,7 5
17.11.2017 20:00:00 -8,3 -9,0 4 2 N 995,4 7
17.11.2017 19:00:00 -8,4 -9,1 4 2 N 995,3 4,0
17.11.2017 18:00:00 -8,7 -9,4 4 2 N 995,5 6
17.11.2017 17:00:00 -8,9 -9,6 4 2 N 995,8 9
17.11.2017 16:00:00 -9,0 -9,7 4 2 N 996,0 1,4
17.11.2017 15:00:00 -9,0 -9,7 5 3 NNO 996,0 2,3
17.11.2017 14:00:00 -9,2 -9,9 4 2 NNO 996,1 3,1
17.11.2017 13:00:00 -9,1 -9,8 5 3 NNO 996,5 4,5
17.11.2017 12:00:00 -9,3 -10,1 5 3 NNO 997,0 1,8
17.11.2017 11:00:00 -9,6 -10,4 4 2 NNO 997,4 1,0
17.11.2017 10:00:00 -9,9 -10,7 5 3 NNO 997,7 0,7
17.11.2017 09:00:00 -9,9 -10,7 5 3 NO 998,2 0,7
17.11.2017 08:00:00 -9,8 -10,6 4 2 NO 998,7 7
17.11.2017 07:00:00 -9,6 -10,4 5 3 NO 999,3 1,6
17.11.2017 06:00:00 -9,5 -10,3 2 1 NO 1000,0 0,9
17.11.2017 05:00:00 -9,3 -10,0 4 2 NO 1000,5 0,6
17.11.2017 04:00:00 -9,3 -10,0 2 1 NNO 1001,3 1,1
17.11.2017 03:00:00 -9,1 -9,8 0 0 N 1001,7 0,5
17.11.2017 02:00:00 -9,2 -9,9 0 0 N 1002,3 0,6
17.11.2017 01:00:00 -9,3 -10,0 0 0 N 1002,9 0,5
17.11.2017 00:00:00 -9,2 -9,9 0 0 N 1003,6 0,2
16.11.2017 23:00:00 -9,3 -10,0 4 2 ZZW 1004,3 0,3
16.11.2017 22:00:00 -9,8 -10,6 0 0 N 1004,5 0,2
16.11.2017 21:00:00 -9,4 -10,1 4 2 - 1004,9 0,5
16.11.2017 20:00:00 -8,7 -9,4 8 4 ZW 1005,0 0,7
16.11.2017 19:00:00 -6,7 -7,1 5 3 ZZW 1004,9 0,4
16.11.2017 18:00:00 -6,3 -6,7 5 3 ZZW 1005,1 0,4
16.11.2017 17:00:00 -6,6 -7,0 9 5 ZW 1005,8 0,8
16.11.2017 16:00:00 -6,9 -7,3 8 4 ZZW 1005,6 2,0
16.11.2017 15:00:00 -5,8 -6,1 5 3 - 1005,9 0,5
16.11.2017 14:00:00 -8,2 -8,9 0 0 N 1005,7 10
16.11.2017 13:00:00 -9,8 -10,6 9 5 ZW 1005,7 10
16.11.2017 12:00:00 -9,6 -10,2 0 0 N 1005,2 10
16.11.2017 11:00:00 -8,5 -9,6 4 2 NNW 1004,0 10
16.11.2017 10:00:00 -8,5 -9,6 8 4 ONO 1003,6 10
16.11.2017 09:00:00 -5,2 -6,7 16 9 ZW 1002,7 10
16.11.2017 08:00:00 -5,7 -7,4 13 7 ZW 1002,8 10
16.11.2017 07:00:00 -5,0 -7,0 18 10 ZW 1002,7 10
16.11.2017 06:00:00 -8,2 -10,3 13 7 ZZW 1003,5 10
16.11.2017 05:00:00 -6,6 -9,5 16 9 ZW 1003,4 10
16.11.2017 04:00:00 -7,5 -9,7 18 10 ZW 1003,6 10
16.11.2017 03:00:00 -9,3 -11,4 18 10 ZW 1003,7 10
16.11.2017 02:00:00 -10,2 -11,9 16 9 ZW 1003,4 10
16.11.2017 01:00:00 -8,2 -10,6 16 9 ZZW 1002,7 10
16.11.2017 00:00:00 -10,1 -11,8 15 8 ZZW 1002,7 10
15.11.2017 23:00:00 -10,7 -12,4 15 8 ZZW 1002,5 10
15.11.2017 22:00:00 -11,7 -13,0 15 8 ZZW 1002,2 10
15.11.2017 21:00:00 -12,4 -13,6 18 10 ZZW 1001,9 10
15.11.2017 20:00:00 -12,6 -13,9 18 10 ZZW 1001,5 10
15.11.2017 19:00:00 -12,4 -13,8 18 10 ZW 1001,1 10
15.11.2017 18:00:00 -12,8 -14,6 15 8 ZW 1000,7 10
15.11.2017 17:00:00 -12,2 -13,8 16 9 ZZW 1000,4 10
15.11.2017 16:00:00 -13,1 -14,4 9 5 Z 1000,2 10
15.11.2017 15:00:00 -13,2 -14,8 11 6 ZZW 1000,0 10
15.11.2017 14:00:00 -12,4 -14,3 16 9 ZW 1000,0 10
15.11.2017 13:00:00 -11,2 -13,4 16 9 ZZW 999,7 10
15.11.2017 12:00:00 -10,2 -12,5 15 8 ZZW 999,6 10
15.11.2017 11:00:00 -11,5 -13,5 15 8 ZZW 999,8 10
15.11.2017 10:00:00 -11,7 -13,7 15 8 ZW 999,6 10
15.11.2017 09:00:00 -11,8 -14,2 18 10 ZZW 999,6 10
15.11.2017 08:00:00 -11,4 -13,4 11 6 ZW 999,3 10
15.11.2017 07:00:00 -9,6 -12,7 13 7 ZZW 999,0 10
15.11.2017 06:00:00 -11,5 -14,0 18 10 ZW 999,2 10
15.11.2017 05:00:00 -11,4 -13,9 18 10 ZZW 999,4 10
15.11.2017 04:00:00 -10,2 -13,1 11 6 Z 999,6 10
15.11.2017 03:00:00 -12,7 -14,1 15 8 ZZW 1000,5 10
15.11.2017 02:00:00 -13,8 -15,4 13 7 Z 1000,7 10
15.11.2017 01:00:00 -10,8 -13,3 15 8 ZZW 1000,5 10
15.11.2017 00:00:00 -11,9 -13,8 8 4 Z 1000,6 10
14.11.2017 23:00:00 -13,2 -15,2 16 9 ZW 1000,8 10
14.11.2017 22:00:00 -9,4 -11,6 11 6 ZZW 1000,4 10
14.11.2017 21:00:00 -9,5 -11,7 11 6 ZZW 1000,6 10
14.11.2017 20:00:00 -10,9 -12,8 11 6 ZW 1000,8 10
14.11.2017 19:00:00 -9,4 -10,7 5 3 Z 1000,5 10
14.11.2017 18:00:00 -6,6 -8,9 11 6 WZW 1000,1 10
14.11.2017 17:00:00 -8,4 -9,6 8 4 ZW 1000,5 10
14.11.2017 16:00:00 -5,0 -7,8 9 5 ZW 999,9 10
14.11.2017 15:00:00 -6,0 -8,0 9 5 ZW 999,9 10
14.11.2017 14:00:00 -4,1 -6,9 8 4 WNW 999,7 10
14.11.2017 13:00:00 -3,2 -6,0 5 3 W 999,6 10
14.11.2017 12:00:00 -5,9 -7,6 5 3 W 999,8 10
14.11.2017 11:00:00 -1,6 -3,9 5 3 - 999,3 10
14.11.2017 10:00:00 -1,5 -3,1 8 4 NW 999,2 10
14.11.2017 09:00:00 -2,2 -3,0 8 4 WNW 999,3 10
14.11.2017 08:00:00 -1,3 -1,7 8 4 W 999,2 10
14.11.2017 07:00:00 -1,9 -2,0 5 3 WNW 999,4 10
14.11.2017 06:00:00 -1,0 -1,1 9 5 NW 999,2 10
14.11.2017 05:00:00 -2,4 -2,4 2 1 - 999,7 10
14.11.2017 04:00:00 -3,4 -3,5 0 0 N 1000,1 10
14.11.2017 03:00:00 -4,4 -4,7 4 2 W 1000,4 10
14.11.2017 02:00:00 -3,7 -3,8 5 3 ZZW 1000,4 10
14.11.2017 01:00:00 -4,5 -4,8 9 5 ZZW 1000,6 10
14.11.2017 00:00:00 -4,7 -5,0 5 3 ZZW 1000,7 10
13.11.2017 23:00:00 -4,4 -4,5 4 2 Z 1000,7 10
13.11.2017 22:00:00 -4,2 -4,5 4 2 - 1000,8 10
13.11.2017 21:00:00 -5,1 -5,4 5 3 ZZW 1001,0 10
13.11.2017 20:00:00 -6,8 -7,3 8 4 ZZW 1001,2 10
13.11.2017 19:00:00 -6,4 -6,9 9 5 ZZW 1001,2 10

tt = temperatuur
td = dauwpunt
ff = windsnelheid
dd = windrichting
ppp = luchtdruk
vv = zicht

Weerstations in de omgeving